User: anonymous   Login
Location: Im Fang
(46.6019°N, 7.2397°E)
Time: 06:41:03
(UTC+00:00)
Language:

Cosmos 1340 - Orbit

View from above orbital plane
View from above orbital plane
View from above satellite
View from above satellite

Ground track
Ground track

The orbit data is extracted from the following two-line orbital elements,

1 13067U 82013A   20049.60047262  .00000590  00000-0  25705-4 0  9990
2 13067  81.1841  74.7097 0004413 115.0957 245.0733 15.20656793 76142
Epoch (UTC): 18 February 2020 14:24:40
Eccentricity: 0.0004413
inclination: 81.1841°
perigee height: 501 km
apogee height: 507 km
right ascension of ascending node: 74.7097°
argument of perigee: 115.0957°
revolutions per day: 15.20656793
mean anomaly at epoch: 245.0733°
orbit number at epoch: 7614

The dashed part of the orbit path shows where the satellite is in the earth's shadow,  

DLR